Location: Benalto
(52.3088°N, 114.2787°W)
Time: 11:53:39
(UTC+00:00)

N. Korean satellite - Pass Details

Date: 09 December 2021
Orbit: 447 x 491 km, 97.3° (Epoch: 21 January)

Event Time Altitude Azimuth Distance (km) Brightness Sun altitude
Rises 00:30:26 0° 189° (S) 2,509 10.7 -9.4°
Reaches altitude 10° 00:32:39 10° 200° (SSW) 1,628 9.9 -9.7°
Maximum altitude 00:35:47 30° 264° (W) 856 8.6 -10.2°
Drops below altitude 10° 00:38:54 10° 328° (NNW) 1,618 9.3 -10.6°
Sets 00:41:06 0° 339° (NNW) 2,490 10.2 -10.9°
